| time (UTC) | temp F | wind direction | speed MPH | gust MPH | rain 1hr in | rain 24hr in | rain mn in | humidity % | barometer mb |
| 20260504222020 | 53 | 240 | 5.0 | 16.0 | 0.00 | 0.00 | 0.57 | 50 | 1002.0 |
| 20260504221512 | 54 | 227 | 4.0 | 9.0 | 0.00 | 0.00 | 0.57 | 49 | 1002.0 |
| 20260504221012 | 54 | 203 | 5.0 | 12.0 | 0.00 | 0.00 | 0.57 | 47 | 1001.0 |
| 20260504220512 | 54 | 206 | 3.0 | 14.0 | 0.00 | 0.00 | 0.57 | 47 | 1001.0 |
| 20260504220012 | 55 | 279 | 7.0 | 12.0 | 0.00 | 0.00 | 0.57 | 46 | 1001.0 |
| 20260504215512 | 55 | 126 | 2.0 | 13.0 | 0.00 | 0.00 | 0.57 | 44 | 1001.0 |
| 20260504215013 | 55 | 247 | 6.0 | 14.0 | 0.00 | 0.00 | 0.57 | 44 | 1001.0 |
| 20260504214511 | 55 | 258 | 15.0 | 25.0 | 0.00 | 0.00 | 0.57 | 43 | 1001.0 |
| 20260504214011 | 55 | 269 | 9.0 | 21.0 | 0.00 | 0.00 | 0.57 | 44 | 1001.0 |
| 20260504213512 | 55 | 256 | 9.0 | 9.0 | 0.00 | 0.00 | 0.57 | 45 | 1001.0 |
| 20260504213013 | 55 | 214 | 5.0 | 14.0 | 0.00 | 0.00 | 0.57 | 44 | 1001.0 |
| 20260504212516 | 55 | 223 | 7.0 | 15.0 | 0.00 | 0.00 | 0.57 | 44 | 1001.0 |
| 20260504212013 | 56 | 255 | 11.0 | 23.0 | 0.00 | 0.00 | 0.57 | 43 | 1001.0 |
| 20260504211513 | 56 | 233 | 5.0 | 10.0 | 0.00 | 0.00 | 0.57 | 43 | 1001.0 |
| 20260504211011 | 57 | 248 | 8.0 | 14.0 | 0.00 | 0.00 | 0.57 | 41 | 1001.0 |
| 20260504210514 | 57 | 234 | 5.0 | 16.0 | 0.00 | 0.00 | 0.57 | 40 | 1001.0 |
| 20260504210014 | 58 | 227 | 7.0 | 15.0 | 0.00 | 0.00 | 0.57 | 38 | 1001.0 |
| 20260504205511 | 59 | 231 | 3.0 | 9.0 | 0.00 | 0.00 | 0.57 | 39 | 1001.0 |
| 20260504205014 | 59 | 241 | 6.0 | 10.0 | 0.00 | 0.00 | 0.57 | 39 | 1001.0 |
| 20260504204514 | 61 | 212 | 3.0 | 10.0 | 0.00 | 0.00 | 0.57 | 36 | 1001.0 |
| 20260504204012 | 61 | 234 | 3.0 | 7.0 | 0.00 | 0.00 | 0.57 | 37 | 1001.0 |
| 20260504203511 | 62 | 238 | 5.0 | 13.0 | 0.00 | 0.00 | 0.57 | 36 | 1000.0 |
| 20260504203015 | 63 | 245 | 16.0 | 19.0 | 0.00 | 0.00 | 0.57 | 34 | 1001.0 |
| 20260504202514 | 64 | 212 | 5.0 | 15.0 | 0.00 | 0.00 | 0.57 | 33 | 1000.0 |
| 20260504202012 | 64 | 249 | 6.0 | 12.0 | 0.00 | 0.00 | 0.57 | 31 | 1000.0 |
| 20260504201511 | 63 | 184 | 4.0 | 15.0 | 0.00 | 0.00 | 0.57 | 33 | 1000.0 |
| 20260504201012 | 62 | 253 | 10.0 | 17.0 | 0.00 | 0.00 | 0.57 | 31 | 1000.0 |
| 20260504200513 | 62 | 221 | 5.0 | 19.0 | 0.00 | 0.00 | 0.57 | 32 | 1000.0 |
| 20260504200013 | 61 | 254 | 9.0 | 11.0 | 0.00 | 0.00 | 0.57 | 36 | 1000.0 |
| 20260504195513 | 61 | 233 | 3.0 | 13.0 | 0.00 | 0.00 | 0.57 | 35 | 1000.0 |
| 20260504195015 | 61 | 248 | 7.0 | 18.0 | 0.00 | 0.00 | 0.57 | 33 | 1000.0 |
| 20260504194515 | 61 | 250 | 8.0 | 14.0 | 0.00 | 0.00 | 0.57 | 34 | 1000.0 |
| 20260504194013 | 61 | 242 | 8.0 | 13.0 | 0.00 | 0.00 | 0.57 | 36 | 1000.0 |
| 20260504193514 | 61 | 238 | 7.0 | 21.0 | 0.00 | 0.00 | 0.57 | 33 | 1000.0 |
| 20260504193013 | 62 | 261 | 8.0 | 23.0 | 0.00 | 0.00 | 0.57 | 33 | 1000.0 |
| 20260504192120 | 61 | 271 | 9.0 | 12.0 | 0.00 | 0.00 | 0.57 | 35 | 1000.0 |
| 20260504191512 | 60 | 244 | 5.0 | 18.0 | 0.00 | 0.00 | 0.57 | 35 | 1000.0 |
| 20260504191014 | 60 | 247 | 10.0 | 14.0 | 0.00 | 0.00 | 0.57 | 35 | 1000.0 |
| 20260504190512 | 61 | 248 | 14.0 | 18.0 | 0.00 | 0.00 | 0.57 | 34 | 1000.0 |
| 20260504190013 | 61 | 224 | 5.0 | 14.0 | 0.00 | 0.00 | 0.57 | 34 | 1000.0 |
| 20260504185514 | 61 | 231 | 9.0 | 14.0 | 0.00 | 0.00 | 0.57 | 37 | 1000.0 |
| 20260504185012 | 61 | 241 | 6.0 | 12.0 | 0.00 | 0.00 | 0.57 | 37 | 1000.0 |
| 20260504184515 | 60 | 242 | 5.0 | 14.0 | 0.00 | 0.00 | 0.57 | 36 | 1000.0 |
| 20260504184013 | 59 | 249 | 13.0 | 14.0 | 0.00 | 0.00 | 0.57 | 40 | 1000.0 |
| 20260504183513 | 59 | 218 | 13.0 | 14.0 | 0.00 | 0.00 | 0.57 | 39 | 1000.0 |
| 20260504182514 | 59 | 226 | 6.0 | 14.0 | 0.00 | 0.00 | 0.57 | 40 | 1000.0 |
| 20260504182014 | 58 | 279 | 5.0 | 22.0 | 0.00 | 0.00 | 0.57 | 39 | 1000.0 |
| 20260504181514 | 58 | 267 | 9.0 | 12.0 | 0.00 | 0.00 | 0.57 | 45 | 1000.0 |
| 20260504181014 | 58 | 210 | 12.0 | 18.0 | 0.00 | 0.00 | 0.57 | 44 | 1000.0 |
| 20260504180513 | 58 | 200 | 9.0 | 12.0 | 0.00 | 0.00 | 0.57 | 45 | 1000.0 |
| 20260504175549 | 57 | 240 | 9.0 | 14.0 | 0.00 | 0.00 | 0.57 | 45 | 1000.0 |
| 20260504175013 | 56 | 247 | 10.0 | 11.0 | 0.00 | 0.00 | 0.57 | 49 | 1000.0 |
| 20260504174513 | 56 | 211 | 17.0 | 19.0 | 0.00 | 0.00 | 0.57 | 47 | 1000.0 |
| 20260504174013 | 56 | 225 | 11.0 | 18.0 | 0.00 | 0.00 | 0.57 | 48 | 1000.0 |
| 20260504173515 | 56 | 265 | 8.0 | 18.0 | 0.00 | 0.00 | 0.57 | 48 | 1000.0 |
| 20260504173013 | 56 | 239 | 9.0 | 17.0 | 0.00 | 0.00 | 0.57 | 47 | 1000.0 |
| 20260504172514 | 56 | 252 | 14.0 | 25.0 | 0.00 | 0.00 | 0.57 | 47 | 1000.0 |
| 20260504172014 | 57 | 230 | 15.0 | 18.0 | 0.00 | 0.00 | 0.57 | 50 | 1000.0 |
| 20260504171514 | 56 | 211 | 10.0 | 12.0 | 0.00 | 0.00 | 0.57 | 49 | 1000.0 |
| 20260504171016 | 56 | 157 | 22.0 | 23.0 | 0.00 | 0.00 | 0.57 | 49 | 1000.0 |
| 20260504170514 | 56 | 277 | 12.0 | 13.0 | 0.00 | 0.00 | 0.57 | 50 | 1000.0 |
| 20260504151013 | 53 | 240 | 10.0 | 20.0 | 0.00 | 0.00 | 0.57 | 59 | 999.0 |
| 20260504150515 | 53 | 329 | 4.0 | 13.0 | 0.00 | 0.00 | 0.57 | 62 | 999.0 |
| 20260504140625 | 48 | 277 | 15.0 | 20.0 | 0.00 | 0.00 | 0.57 | 74 | 998.0 |
| 20260504130513 | 45 | 251 | 4.0 | 16.0 | 0.00 | 0.00 | 0.57 | 81 | 998.0 |
| 20260504110513 | 41 | 248 | 6.0 | 11.0 | 0.02 | 0.00 | 0.57 | 93 | 996.0 |
| 20260504100516 | 40 | 5 | 6.0 | 24.0 | 0.00 | 0.00 | 0.56 | 95 | 995.0 |
| 20260504081513 | 38 | 354 | 9.0 | 26.0 | 0.09 | 0.00 | 0.45 | 96 | 992.0 |
| 20260504081015 | 38 | 338 | 11.0 | 17.0 | 0.14 | 0.00 | 0.44 | 96 | 992.0 |
| 20260504080515 | 38 | 334 | 13.0 | 23.0 | 0.14 | 0.00 | 0.43 | 95 | 992.0 |
| 20260504050515 | 36 | 353 | 15.0 | 29.0 | 0.19 | 0.00 | 0.25 | 97 | 988.0 |
| 20260504050013 | 37 | 354 | 22.0 | 35.0 | 0.19 | 0.00 | 0.23 | 97 | 988.0 |
| 20260504045511 | 37 | 349 | 18.0 | 34.0 | 0.19 | 0.00 | 0.21 | 98 | 988.0 |
| 20260504045012 | 37 | 17 | 16.0 | 33.0 | 0.19 | 0.00 | 0.19 | 98 | 988.0 |
| 20260504044512 | 37 | 345 | 20.0 | 32.0 | 0.12 | 0.00 | 0.17 | 98 | 988.0 |
| 20260504044012 | 37 | 9 | 15.0 | 34.0 | 0.07 | 0.00 | 0.16 | 98 | 988.0 |
| 20260504043512 | 37 | 8 | 22.0 | 31.0 | 0.12 | 0.00 | 0.15 | 98 | 988.0 |
| 20260504043011 | 37 | 15 | 24.0 | 36.0 | 0.09 | 0.00 | 0.14 | 98 | 988.0 |
| 20260504042513 | 37 | 28 | 19.0 | 41.0 | 0.12 | 0.00 | 0.13 | 98 | 988.0 |
| 20260504042015 | 37 | 1 | 25.0 | 44.0 | 0.12 | 0.00 | 0.12 | 98 | 988.0 |
| 20260504041512 | 37 | 13 | 25.0 | 35.0 | 0.07 | 0.00 | 0.11 | 98 | 988.0 |
| 20260504041012 | 37 | 10 | 19.0 | 35.0 | 0.02 | 0.00 | 0.10 | 98 | 988.0 |
| 20260504040512 | 37 | 1 | 33.0 | 43.0 | 0.05 | 0.00 | 0.10 | 98 | 988.0 |
| 20260504040012 | 37 | 5 | 20.0 | 35.0 | 0.02 | 0.00 | 0.09 | 98 | 988.0 |
| 20260504035512 | 37 | 22 | 19.0 | 39.0 | 0.05 | 0.00 | 0.09 | 98 | 988.0 |
| 20260504035013 | 37 | 3 | 24.0 | 33.0 | 0.07 | 0.00 | 0.09 | 98 | 988.0 |
| 20260504034511 | 37 | 343 | 22.0 | 39.0 | 0.05 | 0.00 | 0.08 | 98 | 988.0 |
| 20260504034013 | 37 | 11 | 24.0 | 29.0 | 0.05 | 0.00 | 0.08 | 98 | 988.0 |
| 20260504033515 | 37 | 2 | 18.0 | 36.0 | 0.05 | 0.00 | 0.08 | 98 | 988.0 |
| 20260504033012 | 37 | 9 | 24.0 | 33.0 | 0.07 | 0.00 | 0.07 | 98 | 988.0 |
| 20260504032512 | 37 | 38 | 23.0 | 35.0 | 0.07 | 0.00 | 0.06 | 98 | 988.0 |
| 20260504032011 | 37 | 5 | 19.0 | 37.0 | 0.14 | 0.00 | 0.06 | 98 | 988.0 |
| 20260504031513 | 37 | 7 | 17.0 | 38.0 | 0.17 | 0.00 | 0.05 | 98 | 988.0 |
| 20260504031017 | 37 | 14 | 26.0 | 33.0 | 0.17 | 0.00 | 0.04 | 99 | 988.0 |
| 20260504030511 | 37 | 8 | 35.0 | 36.0 | 0.19 | 0.00 | 0.02 | 99 | 988.0 |
| 20260504030011 | 36 | 24 | 24.0 | 40.0 | 0.19 | 0.00 | 2.26 | 99 | 988.0 |
| 20260504025512 | 36 | 34 | 13.0 | 36.0 | 0.21 | 0.00 | 2.24 | 99 | 988.0 |
| 20260504025011 | 36 | 16 | 27.0 | 35.0 | 0.17 | 0.00 | 2.22 | 99 | 988.0 |
| 20260504024513 | 36 | 24 | 28.0 | 43.0 | 0.14 | 0.00 | 2.21 | 99 | 988.0 |
| 20260504024011 | 36 | 20 | 24.0 | 47.0 | 0.17 | 0.00 | 2.19 | 99 | 988.0 |
| 20260504023512 | 36 | 10 | 19.0 | 38.0 | 0.14 | 0.00 | 2.18 | 99 | 989.0 |
| 20260504023018 | 36 | 46 | 21.0 | 34.0 | 0.14 | 0.00 | 2.17 | 99 | 989.0 |
| 20260504022511 | 36 | 3 | 11.0 | 47.0 | 0.17 | 0.00 | 2.15 | 99 | 989.0 |
| 20260504022011 | 35 | 50 | 35.0 | 40.0 | 0.14 | 0.00 | 2.14 | 99 | 989.0 |
| 20260504021511 | 35 | 58 | 10.0 | 37.0 | 0.17 | 0.00 | 2.13 | 99 | 989.0 |
| 20260504021011 | 35 | 33 | 26.0 | 40.0 | 0.17 | 0.00 | 2.11 | 99 | 990.0 |
| 20260504020512 | 35 | 39 | 26.0 | 39.0 | 0.17 | 0.00 | 2.10 | 99 | 990.0 |
| 20260504020011 | 35 | 32 | 32.0 | 33.0 | 0.19 | 0.00 | 2.08 | 99 | 990.0 |
| 20260504015511 | 35 | 56 | 25.0 | 39.0 | 0.14 | 0.00 | 2.06 | 99 | 990.0 |
| 20260504015012 | 35 | 50 | 12.0 | 44.0 | 0.12 | 0.00 | 2.05 | 99 | 990.0 |
| 20260504014512 | 35 | 60 | 20.0 | 37.0 | 0.14 | 0.00 | 2.04 | 99 | 990.0 |
| 20260504013603 | 35 | 71 | 17.0 | 34.0 | 0.12 | 0.00 | 2.01 | 99 | 991.0 |
| 20260504013012 | 35 | 51 | 19.0 | 37.0 | 0.17 | 0.00 | 2.00 | 99 | 991.0 |
| 20260504012520 | 35 | 65 | 23.0 | 39.0 | 0.14 | 0.00 | 1.99 | 99 | 991.0 |
| 20260504012012 | 35 | 52 | 26.0 | 42.0 | 0.14 | 0.00 | 1.97 | 99 | 991.0 |
| 20260504011512 | 35 | 78 | 18.0 | 35.0 | 0.14 | 0.00 | 1.96 | 99 | 991.0 |
| 20260504011011 | 35 | 40 | 18.0 | 39.0 | 0.14 | 0.00 | 1.95 | 99 | 991.0 |
| 20260504010512 | 35 | 61 | 22.0 | 40.0 | 0.17 | 0.00 | 1.93 | 99 | 991.0 |
| 20260504010012 | 35 | 32 | 32.0 | 40.0 | 0.17 | 0.00 | 1.92 | 98 | 991.0 |
| 20260504005511 | 35 | 56 | 19.0 | 42.0 | 0.17 | 0.00 | 1.91 | 98 | 991.0 |
| 20260504005011 | 36 | 49 | 32.0 | 38.0 | 0.17 | 0.00 | 1.89 | 99 | 991.0 |
| 20260504004511 | 36 | 70 | 35.0 | 50.0 | 0.19 | 0.00 | 1.88 | 99 | 991.0 |
| 20260504004011 | 36 | 65 | 25.0 | 41.0 | 0.21 | 0.00 | 1.86 | 99 | 991.0 |
| 20260504003512 | 36 | 45 | 30.0 | 42.0 | 0.21 | 0.00 | 1.84 | 99 | 991.0 |
| 20260504003011 | 36 | 55 | 35.0 | 48.0 | 0.24 | 0.00 | 1.82 | 99 | 991.0 |
| 20260504002511 | 36 | 52 | 20.0 | 36.0 | 0.31 | 0.00 | 1.80 | 99 | 992.0 |
| 20260504002012 | 36 | 43 | 17.0 | 39.0 | 0.35 | 0.00 | 1.78 | 99 | 992.0 |
| 20260504001514 | 36 | 65 | 15.0 | 42.0 | 0.38 | 0.00 | 1.75 | 99 | 992.0 |
| 20260504001012 | 36 | 52 | 22.0 | 35.0 | 0.47 | 0.00 | 1.72 | 98 | 992.0 |
| 20260504000511 | 36 | 28 | 21.0 | 40.0 | 0.35 | 0.00 | 1.67 | 99 | 992.0 |
| 20260504000013 | 36 | 53 | 29.0 | 34.0 | 0.31 | 0.00 | 1.63 | 99 | 992.0 |
| 20260503235512 | 36 | 54 | 18.0 | 37.0 | 0.35 | 0.00 | 1.60 | 99 | 992.0 |
| 20260503234527 | 36 | 60 | 17.0 | 38.0 | 0.26 | 0.00 | 1.54 | 99 | 992.0 |
| 20260503234012 | 36 | 69 | 27.0 | 37.0 | 0.28 | 0.00 | 1.52 | 98 | 993.0 |
| 20260503233511 | 36 | 53 | 24.0 | 38.0 | 0.26 | 0.00 | 1.50 | 98 | 993.0 |
| 20260503233012 | 36 | 49 | 31.0 | 38.0 | 0.26 | 0.00 | 1.47 | 98 | 993.0 |
| 20260503232512 | 36 | 37 | 29.0 | 41.0 | 0.21 | 0.00 | 1.45 | 98 | 993.0 |
| 20260503232011 | 36 | 50 | 17.0 | 33.0 | 0.19 | 0.00 | 1.43 | 98 | 993.0 |
| 20260503231512 | 36 | 49 | 19.0 | 35.0 | 0.21 | 0.00 | 1.41 | 98 | 993.0 |
| 20260503231011 | 36 | 62 | 26.0 | 30.0 | 0.24 | 0.00 | 1.39 | 98 | 993.0 |
| 20260503230511 | 36 | 43 | 27.0 | 37.0 | 0.14 | 0.00 | 1.37 | 98 | 994.0 |
| 20260503230012 | 36 | 72 | 14.0 | 28.0 | 0.12 | 0.00 | 1.35 | 98 | 994.0 |
| 20260503225512 | 36 | 47 | 15.0 | 27.0 | 0.09 | 0.00 | 1.34 | 98 | 994.0 |
| 20260503225011 | 36 | 64 | 21.0 | 33.0 | 0.12 | 0.00 | 1.34 | 98 | 995.0 |
| 20260503224511 | 36 | 66 | 20.0 | 30.0 | 0.19 | 0.00 | 1.33 | 98 | 995.0 |
| 20260503224011 | 37 | 52 | 20.0 | 34.0 | 0.26 | 0.00 | 1.31 | 98 | 995.0 |
| 20260503223511 | 37 | 79 | 18.0 | 29.0 | 0.28 | 0.00 | 1.30 | 98 | 995.0 |
| 20260503223011 | 37 | 36 | 15.0 | 28.0 | 0.26 | 0.00 | 1.27 | 98 | 995.0 |